Welcome to the New NWS' Forecast!
Most changes are behind the scenes, but click here for differences you might notice.

Regional Weather Roundup (RWR)

Issued by Gray - Portland, ME (GYX)

                            
000
ASUS41 KGYX 150805
RWRGYX
WEATHER ROUNDUP FOR MAINE AND NEW HAMPSHIRE
NATIONAL WEATHER SERVICE GRAY ME
400 AM EDT WED AUG 15 2018

MEZ002-005-006-010-012-015-018-020-021-024-026-027-029-150900-
MAINE
  
CITY           SKY/WX    TMP DP  RH WIND       PRES   REMARKS
PORTLAND       CLOUDY    69  69 100 CALM      29.80F                  
SANFORD        CLOUDY    69  68  96 CALM      29.81F FOG              
BAR HARBOR     FOG       68  68 100 CALM      29.82F VSB 1/4          
WISCASSET      CLOUDY    69  69 100 CALM      29.82S FOG              
ROCKLAND       FOG       66  66 100 SE3       29.81F VSB 1/2          
FRYEBURG       CLOUDY    69  69 100 CALM      29.82S                  
LEWISTONAUBURN CLOUDY    68  68 100 CALM      29.81S FOG              
AUGUSTA        FOG       69  69 100 CALM      29.82S VSB 3/4          
WATERVILLE     CLOUDY    69  68  96 CALM      29.79F                  
BANGOR         CLOUDY    71  69  93 S6        29.81F FOG              
GREENVILLE       N/A     67  66  97 CALM      29.81F                  
MILLINOCKET    CLOUDY    71  67  87 CALM      29.81F                  
HOULTON        CLOUDY    69  68  96 SW9       29.79S                  
PRESQUE ISLE   CLOUDY    70  67  90 S6        29.78F                  
FRENCHVILLE    LGT RAIN  71  67  87 W8        29.76S FOG              
CARIBOU        LGT RAIN  71  67  87 S7        29.77S                  
$$

NHZ002-005-008-009-011-012-014-150900-
NEW HAMPSHIRE
  
CITY           SKY/WX    TMP DP  RH WIND       PRES   REMARKS
PORTSMOUTH     CLOUDY    69  69  97 CALM      29.79F FOG              
ROCHESTER      CLOUDY    69  69 100 CALM      29.81F FOG              
MANCHESTER     NOT AVBL                                               
CONCORD        CLOUDY    69  68  96 CALM      29.82S                  
LACONIA        CLOUDY    67  67 100 CALM      29.83S                  
PLYMOUTH       CLOUDY    66  64  96 CALM      29.82S                  
BERLIN         FOG       64  64 100 CALM      29.84S VSB 1/4          
WHITEFIELD     MOCLDY    58  57  97 CALM      29.84S FOG              
JAFFREY        NOT AVBL                                               
LEBANON        MOCLDY    67  63  87 CALM      29.82S                  
MT WASHINGTON  NOT AVBL                                               
$$

VTZ005-007-008-150900-
VERMONT
  
CITY           SKY/WX    TMP DP  RH WIND       PRES   REMARKS
ST JOHNSBURY     N/A     64  64 100 MISG      29.81S                  
MONTPELIER     FOG       62  62 100 NW3       29.86F VSB 1            
BURLINGTON     FAIR      69  65  86 S3        29.79F                  
$$

MAZ007-012-024-CTZ003-RIZ002-NYZ038-NYZ072-150900-
SOUTHERN NEW ENGLAND AND NY
  
CITY           SKY/WX    TMP DP  RH WIND       PRES   REMARKS
BOSTON         CLOUDY    72  69  90 CALM      29.80F                  
WORCESTER      LGT RAIN  67  67 100 W6        29.83F                  
NANTUCKET      MOCLDY    72  71  97 SW9       29.84F                  
PROVIDENCE     FAIR      70  68  93 S6        29.82F                  
HARTFORD       MOCLDY    69  68  96 CALM      29.81S                  
ALBANY         FAIR      69  64  84 W3        29.83R                  
NEW YORK CITY  FAIR      73  65  75 W9        29.83S                  
$$

ANZ081-ANZ082-ANZ150-NHZ014-MEZ023>029-150900-
COASTAL MARINE OBSERVATIONS
  
STATION/POSITION TIME  TEMP    WIND        PRES    WAVE
                       AIR SEA DIR/SP/G            HT/PER
                 (UTC) (F)     (DEG/KT/KT) (MB)    (FT/S)
MOUNT DESERT ROC 0700   67     160/ 15/ 15 1010.6F
MATINICUS ROCK   0700   66     190/ 12/ 12 1009.7F
ISLE OF SHOALS   0700   68      30/  4/  5 1009.1F
JEFFREYS LEDGE   0736      68                N/A     2/ 5
$$

.............KEY..............
   WCI - WIND CHILL
   TC  - TEMPERATURE IN CELSIUS
   VSB - VISIBILITY IN MILES
   HX  - HEAT INDEX
   FAIR- INDICATES FEW OR NO CLOUDS BELOW 12,000 FT, WITH NO 
         SIGNIFICANT WEATHER AND/OR OBSTRUCTIONS TO VISIBILITY.